Location: Marse
(42.1502°N, 110.9866°W)
Time: 04:05:20
(UTC+00:00)

ITUPSAT 1 - Pass Details

Date: 07 July 2022
Orbit: 701 x 711 km, 98.6° (Epoch: 16 August)

Event Time Altitude Azimuth Distance (km) Brightness Sun altitude
Rises 03:52:46 0° 13° (NNE) 3,113 ? -8.3°
Reaches altitude 10° 03:55:02 10° 14° (NNE) 2,191 ? -8.6°
Maximum altitude 03:59:51 90° 111° (ESE) 716 ? -9.3°
Drops below altitude 10° 04:04:38 10° 195° (SSW) 2,179 ? -9.9°
Sets 04:06:53 0° 195° (SSW) 3,095 ? -10.2°
